period_start,C,m1,H,J0,J1,J2,J3,J4,J5,JA,JB,JC,JD,JJ,JK,JN,#
2016-01-15 00:01:07,0.71,6.54,1.00,14.66,19.04,22.81,15.44,49.62,1041.96,2062.01,1694.59,1904.01,2116.11,600.13,628.74,24.75,0000 0000 0000 0000 000000
2016-01-15 00:06:08,0.71,6.58,1.00,14.68,19.07,22.81,15.47,49.54,1041.98,2062.00,1688.84,1899.32,2110.79,600.24,628.66,24.80,0000 0000 0000 0000 000000
2016-01-15 00:11:10,0.73,6.61,1.00,14.69,19.08,22.81,15.47,49.48,1041.97,2062.00,1683.03,1894.73,2105.56,600.32,628.82,24.85,0000 0000 0000 0000 000000
2016-01-15 00:16:11,0.68,6.64,1.00,14.69,19.09,22.83,15.45,49.48,1042.00,2062.00,1677.27,1890.41,2100.74,600.45,629.15,24.90,0000 0000 0000 0000 000000
2016-01-15 00:21:12,0.65,6.68,1.00,14.72,19.11,22.83,15.40,49.53,1042.01,2061.99,1671.95,1886.25,2096.09,600.21,628.72,24.95,0000 0000 0000 0000 000000
2016-01-15 00:26:13,0.66,6.71,1.00,14.71,19.12,22.84,15.29,49.68,1042.01,2061.97,1666.60,1882.08,2091.35,599.84,628.35,25.00,0000 0000 0000 0000 000000
2016-01-15 00:31:15,0.66,6.75,1.00,14.70,19.14,22.87,15.43,49.61,1041.99,2061.97,1661.47,1877.97,2086.58,600.02,628.59,25.05,0000 0000 0000 0000 000000
2016-01-15 00:36:16,0.69,6.78,1.00,14.71,19.14,22.84,15.42,49.43,1042.00,2061.89,1655.75,1873.71,2081.87,600.32,628.94,25.10,0000 0000 0000 0000 000000
2016-01-15 00:41:18,0.62,6.81,1.00,14.73,19.16,22.85,15.44,49.48,1041.89,2061.76,1650.49,1869.73,2077.34,600.33,628.85,25.15,0000 0000 0000 0000 000000
2016-01-15 00:46:19,0.65,6.85,1.00,14.73,19.17,22.92,15.37,49.42,1041.69,2061.38,1645.10,1865.55,2072.48,600.25,628.61,25.20,0000 0000 0000 0000 000000
2016-01-15 00:51:20,0.71,6.88,1.00,14.75,19.17,22.92,15.38,49.48,1041.81,2061.11,1639.24,1861.12,2067.54,599.85,628.13,25.25,0000 0000 0000 0000 000000
2016-01-15 00:56:22,0.60,6.91,1.00,14.75,19.17,22.89,15.38,49.48,1041.94,2061.04,1633.94,1857.30,2063.33,600.04,628.33,25.30,0000 0000 0000 0000 000000
2016-01-15 01:01:23,0.54,6.94,1.00,14.75,19.19,22.87,15.34,49.33,1041.66,2061.05,1629.29,1854.17,2059.68,599.71,627.94,25.35,0000 0000 0000 0000 000000
2016-01-15 01:06:25,0.53,6.97,1.00,14.77,19.19,22.93,15.36,49.47,1041.56,2061.07,1625.14,1851.04,2056.08,599.88,627.82,25.40,0000 0000 0000 0000 000000
2016-01-15 01:11:26,0.49,6.99,1.00,14.77,19.19,22.89,15.42,49.55,1041.56,2061.04,1621.31,1848.01,2052.62,600.17,628.27,25.45,0000 0000 0000 0000 000000
2016-01-15 01:16:27,0.42,7.02,1.00,14.79,19.19,22.88,15.41,49.59,1041.59,2061.02,1617.82,1845.33,2049.60,599.98,628.00,25.50,0000 0000 0000 0000 000000
2016-01-15 01:21:28,0.39,7.04,1.00,14.79,19.20,22.88,15.35,49.48,1041.60,2061.02,1614.63,1843.03,2047.12,599.65,627.77,25.55,0000 0000 0000 0000 000000
2016-01-15 01:26:30,0.45,7.06,1.00,14.81,19.21,22.89,15.39,49.45,1041.73,2061.01,1611.21,1840.40,2044.30,599.96,627.89,25.61,0000 0000 0000 0000 000000
2016-01-15 01:31:31,0.52,7.09,0.00,14.79,19.22,22.94,15.38,49.64,1041.65,2061.01,1607.23,1837.35,2040.79,600.46,628.54,25.66,0000 0000 0000 0000 000000
2016-01-15 01:36:32,0.44,7.11,0.00,14.82,19.22,22.92,15.42,49.53,1041.76,2061.00,1603.59,1834.73,2037.83,599.80,627.85,25.71,0000 0000 0000 0000 000000
2016-01-15 01:41:34,0.39,7.13,0.00,14.83,19.22,22.95,15.37,49.38,1041.80,2061.01,1600.41,1832.41,2035.29,600.13,628.26,25.76,0000 0000 0000 0000 000000
2016-01-15 01:46:35,0.42,7.15,0.00,14.82,19.22,22.91,15.33,49.53,1041.87,2061.01,1597.54,1829.94,2032.36,600.04,627.91,25.81,0000 0000 0000 0000 000000
2016-01-15 01:51:37,0.43,7.17,0.00,14.82,19.22,22.93,15.33,49.61,1041.84,2061.00,1594.22,1827.34,2029.36,599.80,627.96,25.86,0000 0000 0000 0000 000000
2016-01-15 01:56:38,0.48,7.20,0.00,14.81,19.22,22.92,15.34,49.67,1041.73,2061.00,1590.75,1824.56,2026.21,599.68,627.89,25.91,0000 0000 0000 0000 000000
2016-01-15 02:01:39,0.47,7.22,0.00,14.82,19.24,22.96,15.35,49.66,1041.66,2061.00,1587.10,1821.74,2023.08,600.21,628.25,25.96,0000 0000 0000 0000 000000
2016-01-15 02:06:40,0.47,7.24,0.00,14.84,19.24,22.92,15.39,49.59,1041.55,2061.00,1583.67,1819.01,2019.92,599.92,627.77,26.01,0000 0000 0000 0000 000000
2016-01-15 02:11:41,0.52,7.27,0.00,14.87,19.24,22.93,15.38,49.52,1041.55,2061.00,1579.84,1816.05,2016.55,599.75,627.65,26.06,0000 0000 0000 0000 000000
2016-01-15 02:16:43,0.49,7.29,0.00,14.86,19.25,22.96,15.36,49.68,1041.57,2061.00,1576.01,1813.13,2013.20,599.69,627.60,26.11,0000 0000 0000 0000 000000
2016-01-15 02:21:44,0.41,7.31,0.00,14.86,19.26,22.96,15.33,49.65,1041.54,2061.00,1572.79,1810.64,2010.38,599.89,627.80,26.16,0000 0000 0000 0000 000000
2016-01-15 02:26:45,0.41,7.34,0.00,14.84,19.27,22.94,15.37,49.72,1041.53,2061.00,1569.82,1808.34,2007.78,599.93,627.97,26.21,0000 0000 0000 0000 000000
2016-01-15 02:31:46,0.39,7.36,0.00,14.85,19.27,22.96,15.36,49.74,1041.52,2060.99,1566.73,1806.05,2005.16,599.90,627.76,26.26,0000 0000 0000 0000 000000
2016-01-15 02:36:48,0.35,7.38,0.00,14.87,19.27,22.95,15.38,49.72,1041.53,2060.99,1564.10,1804.05,2002.90,600.13,628.07,26.31,0000 0000 0000 0000 000000
2016-01-15 02:41:49,0.36,7.39,0.00,14.86,19.27,22.93,15.34,49.82,1041.55,2060.98,1561.32,1801.96,2000.60,599.80,627.59,26.36,0000 0000 0000 0000 000000
2016-01-15 02:46:50,0.33,7.41,0.00,14.87,19.27,22.99,15.41,49.71,1041.61,2060.99,1558.79,1799.99,1998.31,599.91,627.69,26.41,0000 0000 0000 0000 000000
2016-01-15 02:51:52,0.35,7.43,0.00,14.88,19.28,22.97,15.37,49.73,1041.61,2060.97,1556.24,1798.06,1996.09,599.81,627.75,26.46,0000 0000 0000 0000 000000
2016-01-15 02:56:53,0.34,7.45,0.00,14.88,19.28,22.96,15.33,49.63,1041.66,2060.96,1553.57,1796.07,1993.85,599.89,627.89,26.51,0000 0000 0000 0000 000000
2016-01-15 03:01:54,0.35,7.46,0.00,14.88,19.29,22.95,15.41,49.65,1041.70,2060.96,1551.03,1794.13,1991.66,600.11,627.91,26.56,0000 0000 0000 0000 000000
2016-01-15 03:06:55,0.38,7.48,0.00,14.88,19.29,22.97,15.40,49.63,1041.70,2060.96,1548.21,1792.09,1989.28,600.18,628.21,26.61,0000 0000 0000 0000 000000
2016-01-15 03:11:57,0.29,7.50,0.00,14.88,19.29,22.96,15.33,49.53,1041.89,2060.97,1545.76,1790.35,1987.31,600.17,628.20,26.66,0000 0000 0000 0000 000000
2016-01-15 03:16:59,0.31,7.51,0.00,14.86,19.29,22.94,15.38,49.61,1041.95,2060.98,1543.45,1788.65,1985.36,600.36,628.45,26.71,0000 0000 0000 0000 000000
2016-01-15 03:22:00,0.29,7.53,0.00,14.88,19.29,22.98,15.47,49.63,1041.94,2060.95,1541.27,1786.98,1983.60,600.20,628.31,26.76,0000 0000 0000 0000 000000
2016-01-15 03:27:01,0.31,7.55,0.00,14.89,19.29,22.99,15.35,49.65,1041.95,2060.97,1538.90,1785.22,1981.73,600.00,627.97,26.81,0000 0000 0000 0000 000000
2016-01-15 03:32:03,0.21,7.56,0.00,14.90,19.30,23.00,15.46,49.67,1041.91,2060.96,1537.08,1783.82,1980.10,600.01,628.06,26.86,0000 0000 0000 0000 000000
2016-01-15 03:37:04,0.21,7.57,0.00,14.90,19.30,22.97,15.43,49.67,1041.98,2060.92,1535.57,1782.71,1978.90,600.19,628.24,26.91,0000 0000 0000 0000 000000
2016-01-15 03:42:05,0.12,7.58,0.00,14.92,19.31,22.95,15.34,49.58,1041.95,2060.94,1534.45,1781.89,1977.97,600.24,628.25,26.96,0000 0000 0000 0000 000000
2016-01-15 03:47:07,0.11,7.58,0.00,14.94,19.32,22.93,15.40,49.57,1041.88,2060.98,1533.83,1781.05,1977.01,600.01,627.95,27.01,0000 0000 0000 0000 000000
2016-01-15 03:52:09,0.29,7.59,0.00,14.93,19.32,23.02,15.29,49.63,1041.91,2060.95,1532.13,1779.81,1975.59,599.73,627.74,27.06,0000 0000 0000 0000 000000
2016-01-15 03:57:10,0.14,7.60,0.00,14.94,19.32,23.03,15.39,49.73,1042.00,2060.95,1530.70,1778.81,1974.34,599.96,628.01,27.11,0000 0000 0000 0000 000000
2016-01-15 04:02:11,0.08,7.61,0.00,14.94,19.32,23.02,15.34,49.68,1042.01,2060.95,1529.98,1778.07,1973.84,599.98,628.22,27.16,0000 0000 0000 0000 000000
2016-01-15 04:07:12,0.11,7.61,0.00,14.92,19.32,23.02,15.38,49.70,1042.01,2060.96,1529.20,1777.74,1973.06,599.87,627.91,27.21,0000 0000 0000 0000 000000
2016-01-15 04:12:13,0.24,7.62,0.00,14.92,19.33,23.02,15.33,49.58,1042.01,2060.89,1527.72,1776.52,1971.87,599.65,627.70,27.26,0000 0000 0000 0000 000000
2016-01-15 04:17:14,0.38,7.64,0.00,14.93,19.34,23.01,15.28,49.77,1042.01,2060.91,1524.95,1774.55,1969.63,599.62,627.79,27.31,0000 0000 0000 0000 000000
2016-01-15 04:22:16,0.36,7.66,0.00,14.93,19.34,23.03,15.43,49.92,1042.01,2060.95,1522.28,1772.58,1967.37,599.99,628.02,27.36,0000 0000 0000 0000 000000
2016-01-15 04:27:17,0.30,7.68,0.00,14.95,19.34,23.04,15.37,49.76,1042.01,2060.95,1519.97,1770.83,1965.47,600.10,628.10,27.41,0000 0000 0000 0000 000000
2016-01-15 04:32:18,0.31,7.69,0.00,14.95,19.34,23.05,15.36,49.97,1042.01,2060.96,1517.76,1769.15,1963.52,600.09,628.15,27.46,0000 0000 0000 0000 000000
2016-01-15 04:37:20,0.32,7.71,0.00,14.94,19.36,23.04,15.44,49.84,1042.02,2060.81,1515.67,1767.22,1961.05,599.84,627.88,27.51,0000 0000 0000 0000 000000
2016-01-15 04:42:21,0.23,7.72,0.00,14.95,19.37,23.02,15.37,49.77,1042.04,2060.44,1513.60,1765.56,1959.04,599.86,628.01,27.56,0000 0000 0000 0000 000000
2016-01-15 04:47:22,0.24,7.73,0.00,14.95,19.38,23.07,15.42,49.91,1042.05,2060.35,1511.79,1764.20,1957.54,600.11,628.12,27.61,0000 0000 0000 0000 000000
2016-01-15 04:52:24,0.21,7.74,0.00,14.95,19.39,23.10,15.33,49.72,1042.06,2060.14,1510.04,1762.89,1956.02,599.43,627.37,27.66,0000 0000 0000 0000 000000
2016-01-15 04:57:25,0.29,7.76,0.00,14.97,19.39,23.09,15.37,49.65,1042.18,2060.08,1508.04,1761.41,1954.32,599.63,627.72,27.71,0000 0000 0000 0000 000000
2016-01-15 05:02:27,0.30,7.77,0.00,14.99,19.39,23.11,15.39,49.75,1042.16,2060.05,1505.81,1759.78,1952.54,600.04,628.02,27.76,0000 0000 0000 0000 000000
2016-01-15 05:07:28,0.23,7.78,0.00,14.97,19.40,23.14,15.45,49.83,1042.18,2060.03,1504.04,1758.36,1950.92,600.26,628.26,27.81,0000 0000 0000 0000 000000
2016-01-15 05:12:29,0.23,7.80,0.00,14.96,19.42,23.12,15.43,49.77,1042.17,2060.06,1502.31,1757.06,1949.47,599.81,627.96,27.86,0000 0000 0000 0000 000000
2016-01-15 05:17:31,0.23,7.81,0.00,14.98,19.42,23.10,15.36,49.87,1042.22,2060.04,1500.58,1755.86,1948.12,599.81,627.87,27.91,0000 0000 0000 0000 000000
2016-01-15 05:22:32,0.15,7.82,0.00,14.97,19.42,23.11,15.41,49.77,1042.37,2060.07,1499.19,1754.96,1947.01,599.89,628.16,27.96,0000 0000 0000 0000 000000
2016-01-15 05:27:33,0.16,7.83,0.00,14.97,19.42,23.10,15.37,49.75,1042.46,2060.04,1498.18,1754.03,1945.95,599.72,627.92,28.01,0000 0000 0000 0000 000000
2016-01-15 05:32:35,0.14,7.84,0.00,14.97,19.42,23.12,15.44,49.86,1042.44,2060.03,1497.09,1753.12,1945.05,600.10,628.30,28.06,0000 0000 0000 0000 000000
2016-01-15 05:37:36,0.14,7.84,0.00,14.99,19.42,23.13,15.42,49.91,1042.45,2060.02,1496.20,1752.59,1944.20,600.11,628.26,28.11,0000 0000 0000 0000 000000
2016-01-15 05:42:38,0.14,7.85,0.00,15.01,19.42,23.12,15.38,49.84,1042.43,2060.01,1495.10,1751.76,1943.37,599.93,628.05,28.16,0000 0000 0000 0000 000000
2016-01-15 05:47:39,0.15,7.86,0.00,15.02,19.42,23.09,15.35,49.85,1042.41,2060.01,1493.90,1750.96,1942.36,600.08,628.08,28.21,0000 0000 0000 0000 000000
2016-01-15 05:52:40,0.13,7.87,0.00,15.05,19.42,23.14,15.42,49.97,1042.43,2060.02,1492.93,1750.10,1941.75,600.08,627.96,28.26,0000 0000 0000 0000 000000
2016-01-15 05:57:42,0.10,7.87,0.00,15.04,19.42,23.19,15.45,50.05,1042.47,2060.03,1492.07,1749.69,1941.03,600.40,628.40,28.31,0000 0000 0000 0000 000000
2016-01-15 06:02:43,0.12,7.88,0.00,15.02,19.42,23.12,15.41,50.00,1042.49,2060.04,1491.30,1749.02,1940.62,600.39,628.56,28.36,0000 0000 0000 0000 000000
2016-01-15 06:07:44,0.03,7.88,0.00,15.02,19.42,23.12,15.43,50.09,1042.48,2060.07,1490.87,1748.97,1940.07,600.14,628.41,28.41,0000 0000 0000 0000 000000
2016-01-15 06:12:46,0.10,7.88,0.00,15.05,19.42,23.11,15.32,50.17,1042.47,2060.21,1490.20,1748.65,1940.00,599.79,628.03,28.46,0000 0000 0000 0000 000000
2016-01-15 06:17:47,0.03,7.89,0.00,15.08,19.43,23.13,15.36,49.83,1042.47,2060.23,1490.01,1748.07,1939.98,600.20,628.09,28.51,0000 0000 0000 0000 000000
2016-01-15 06:22:48,0.02,7.89,0.00,15.06,19.44,23.11,15.40,49.97,1042.47,2060.27,1490.00,1748.00,1939.67,600.30,628.43,28.56,0000 0000 0000 0000 000000
2016-01-15 06:27:49,-0.01,7.89,0.00,15.06,19.44,23.15,15.32,50.25,1042.40,2060.07,1489.99,1747.98,1939.05,599.60,627.61,28.61,0000 0000 0000 0000 000000
2016-01-15 06:32:50,0.01,7.89,0.00,15.06,19.44,23.14,15.30,50.17,1042.39,2060.03,1489.96,1747.75,1939.00,600.03,627.83,28.66,0000 0000 0000 0000 000000
2016-01-15 06:37:52,0.04,7.89,0.00,15.08,19.47,23.13,15.36,50.12,1042.46,2060.01,1489.88,1747.16,1938.98,599.62,627.68,28.71,0000 0000 0000 0000 000000
2016-01-15 06:42:53,0.02,7.89,0.00,15.08,19.47,23.17,15.37,49.99,1042.47,2060.04,1489.73,1747.02,1938.81,599.47,627.46,28.76,0000 0000 0000 0000 000000
2016-01-15 06:47:54,0.02,7.89,0.00,15.08,19.49,23.19,15.44,50.09,1042.45,2060.02,1489.61,1747.00,1938.17,600.04,628.03,28.81,0000 0000 0000 0000 000000
2016-01-15 06:52:55,0.05,7.90,0.00,15.13,19.49,23.23,15.33,49.93,1042.46,2060.05,1489.04,1746.99,1938.02,599.85,627.83,28.86,0000 0000 0000 0000 000000
2016-01-15 06:57:57,0.01,7.90,0.00,15.13,19.51,23.24,15.38,50.10,1042.50,2060.05,1489.00,1746.80,1938.00,599.97,627.88,28.91,0000 0000 0000 0000 000000
2016-01-15 07:02:58,0.03,7.90,0.00,15.13,19.52,23.26,15.39,50.13,1042.50,2060.02,1489.00,1746.12,1937.98,600.11,628.01,28.97,0000 0000 0000 0000 000000
2016-01-15 07:08:00,0.04,7.90,0.00,15.13,19.53,23.25,15.37,50.22,1042.49,2060.00,1488.54,1746.00,1937.97,599.64,627.42,29.02,0000 0000 0000 0000 000000
2016-01-15 07:13:01,-0.00,7.90,0.00,15.14,19.54,23.23,15.35,50.22,1042.49,2060.01,1488.53,1746.00,1937.67,599.61,627.35,29.07,0000 0000 0000 0000 000000
2016-01-15 07:18:02,-0.01,7.90,0.00,15.15,19.54,23.24,15.43,50.24,1042.50,2060.01,1488.95,1746.00,1937.20,600.00,627.97,29.12,0000 0000 0000 0000 000000
2016-01-15 07:23:03,0.01,7.90,0.00,15.15,19.56,23.25,15.41,50.23,1042.50,2060.00,1488.85,1746.00,1937.10,600.29,628.15,29.17,0000 0000 0000 0000 000000
2016-01-15 07:28:04,0.03,7.90,0.00,15.15,19.57,23.27,15.33,50.28,1042.50,2060.00,1488.42,1745.99,1937.03,599.82,627.57,29.22,0000 0000 0000 0000 000000
2016-01-15 07:33:06,0.01,7.90,0.00,15.17,19.59,23.30,15.41,50.19,1042.50,2060.00,1488.32,1745.96,1937.04,600.18,628.05,29.27,0000 0000 0000 0000 000000
2016-01-15 07:38:07,0.01,7.90,0.00,15.20,19.59,23.31,15.36,50.23,1042.50,2060.00,1488.06,1745.95,1937.01,600.22,627.82,29.32,0000 0000 0000 0000 000000
2016-01-15 07:43:08,0.01,7.90,0.00,15.19,19.61,23.33,15.34,50.19,1042.50,2060.00,1488.07,1745.79,1937.00,599.94,627.61,29.37,0000 0000 0000 0000 000000
2016-01-15 07:48:10,0.02,7.90,0.00,15.20,19.62,23.35,15.37,50.17,1042.50,2060.00,1488.35,1745.53,1937.00,600.04,627.88,29.42,0000 0000 0000 0000 000000
2016-01-15 07:53:11,-0.02,7.90,0.00,15.22,19.64,23.37,15.33,50.13,1042.50,2060.00,1488.45,1745.26,1937.00,599.74,627.62,29.47,0000 0000 0000 0000 000000
2016-01-15 07:58:12,-0.01,7.90,0.00,15.22,19.65,23.40,15.39,50.10,1042.50,2059.98,1488.96,1745.11,1936.98,599.82,627.45,29.52,0000 0000 0000 0000 000000
2016-01-15 08:03:14,0.00,7.90,0.00,15.24,19.67,23.41,15.40,50.16,1042.51,2059.95,1488.98,1745.05,1936.94,599.73,627.45,29.57,0000 0000 0000 0000 000000
2016-01-15 08:08:15,-0.01,7.90,0.00,15.25,19.68,23.37,15.45,49.95,1042.50,2059.90,1488.98,1745.03,1936.92,600.40,627.99,29.62,0000 0000 0000 0000 000000
2016-01-15 08:13:16,0.01,7.90,0.00,15.26,19.69,23.44,15.38,49.99,1042.50,2059.78,1488.84,1745.01,1936.79,600.03,627.49,29.67,0000 0000 0000 0000 000000
2016-01-15 08:18:18,0.07,7.90,0.00,15.27,19.69,23.39,15.41,49.95,1042.51,2059.83,1488.21,1745.00,1936.47,599.88,627.52,29.72,0000 0000 0000 0000 000000
2016-01-15 08:23:19,0.10,7.91,0.00,15.27,19.71,23.43,15.40,49.88,1042.53,2059.91,1487.60,1744.56,1936.01,600.27,627.86,29.77,0000 0000 0000 0000 000000
2016-01-15 08:28:20,0.05,7.91,0.00,15.27,19.72,23.45,15.50,50.02,1042.53,2059.91,1487.01,1744.01,1935.78,599.86,627.41,29.82,0000 0000 0000 0000 000000
2016-01-15 08:33:22,0.14,7.92,0.00,15.28,19.73,23.46,15.33,49.90,1042.53,2059.91,1486.36,1743.51,1934.84,600.02,627.48,29.87,0000 0000 0000 0000 000000
2016-01-15 08:38:23,0.21,7.93,0.00,15.30,19.74,23.48,15.31,50.00,1042.65,2059.89,1484.99,1742.42,1933.67,600.01,627.71,29.92,0000 0000 0000 0000 000000
2016-01-15 08:43:24,0.17,7.94,0.00,15.30,19.76,23.49,15.41,50.03,1042.73,2059.83,1483.73,1741.31,1932.56,599.97,627.59,29.97,0000 0000 0000 0000 000000
2016-01-15 08:48:25,0.20,7.94,0.00,15.32,19.77,23.48,15.36,50.17,1042.75,2059.63,1482.30,1740.20,1931.37,600.07,627.61,30.02,0000 0000 0000 0000 000000
2016-01-15 08:53:26,0.25,7.96,0.00,15.34,19.78,23.50,15.36,50.08,1042.58,2059.58,1480.58,1738.69,1929.71,599.72,627.18,30.07,0000 0000 0000 0000 000000
2016-01-15 08:58:28,0.07,7.96,0.00,15.34,19.79,23.57,15.36,49.93,1042.60,2059.17,1479.66,1737.83,1928.66,600.07,627.52,30.12,0000 0000 0000 0000 000000
2016-01-15 09:03:29,0.16,7.97,0.00,15.36,19.82,23.54,15.31,49.92,1042.59,2059.04,1478.55,1736.89,1927.63,599.89,627.30,30.17,0000 0000 0000 0000 000000
2016-01-15 09:08:30,0.19,7.98,0.00,15.37,19.83,23.57,15.30,49.88,1042.63,2059.02,1477.03,1735.86,1926.45,599.90,627.37,30.22,0000 0000 0000 0000 000000
2016-01-15 09:13:32,0.10,7.99,0.00,15.38,19.84,23.54,15.33,49.93,1042.64,2059.02,1476.08,1735.08,1925.88,599.73,627.23,30.27,0000 0000 0000 0000 000000
2016-01-15 09:18:33,0.18,8.00,0.00,15.39,19.86,23.52,15.36,49.92,1042.57,2059.01,1474.94,1734.28,1924.89,600.36,627.75,30.32,0000 0000 0000 0000 000000
2016-01-15 09:23:34,0.21,8.01,0.00,15.40,19.87,23.59,15.35,50.00,1042.60,2059.00,1473.63,1733.10,1923.71,600.09,627.47,30.37,0000 0000 0000 0000 000000
2016-01-15 09:28:35,0.25,8.02,0.00,15.42,19.88,23.55,15.39,50.09,1042.72,2059.00,1472.02,1731.73,1922.11,600.02,627.42,30.42,0000 0000 0000 0000 000000
2016-01-15 09:33:36,0.25,8.03,0.00,15.44,19.89,23.57,15.35,50.01,1042.69,2059.00,1470.66,1730.40,1920.57,600.17,627.55,30.47,0000 0000 0000 0000 000000
2016-01-15 09:38:38,0.32,8.05,0.00,15.44,19.92,23.58,15.47,50.08,1042.65,2058.98,1468.63,1728.66,1918.76,600.22,627.60,30.52,0000 0000 0000 0000 000000
2016-01-15 09:43:39,0.25,8.06,0.00,15.45,19.92,23.63,15.35,50.09,1042.68,2058.98,1466.85,1727.29,1917.01,599.97,627.32,30.57,0000 0000 0000 0000 000000
2016-01-15 09:48:40,0.30,8.07,0.00,15.46,19.94,23.65,15.40,49.93,1042.82,2058.98,1464.77,1725.78,1915.40,599.84,627.27,30.62,0000 0000 0000 0000 000000
2016-01-15 09:53:41,0.28,8.09,0.00,15.44,19.95,23.68,15.39,49.92,1042.74,2058.96,1462.80,1724.20,1913.62,600.00,627.32,30.67,0000 0000 0000 0000 000000
2016-01-15 09:58:43,0.30,8.10,0.00,15.48,19.97,23.67,15.37,49.94,1042.71,2058.94,1460.68,1722.65,1911.95,600.32,627.62,30.72,0000 0000 0000 0000 000000
2016-01-15 10:03:44,0.30,8.12,0.00,15.51,19.97,23.67,15.34,49.94,1042.61,2058.85,1458.57,1720.95,1910.18,599.74,626.81,30.77,0000 0000 0000 0000 000000
2016-01-15 10:08:45,0.21,8.13,0.00,15.50,19.98,23.67,15.32,49.94,1042.60,2058.68,1456.94,1719.51,1908.44,599.72,626.92,30.82,0000 0000 0000 0000 000000
2016-01-15 10:13:47,0.25,8.14,0.00,15.52,19.99,23.71,15.38,49.82,1042.60,2058.23,1455.18,1717.93,1906.72,600.09,627.15,30.87,0000 0000 0000 0000 000000
2016-01-15 10:18:48,0.36,8.16,0.00,15.52,19.99,23.72,15.35,50.04,1042.60,2058.05,1452.81,1715.99,1904.54,600.07,627.20,30.92,0000 0000 0000 0000 000000
2016-01-15 10:23:49,0.37,8.18,0.00,15.54,19.99,23.70,15.41,50.03,1042.53,2058.04,1450.20,1714.00,1902.42,600.02,627.11,30.97,0000 0000 0000 0000 000000
2016-01-15 10:28:51,0.31,8.20,0.00,15.55,19.99,23.71,15.25,49.77,1042.53,2058.05,1448.10,1712.33,1900.56,599.77,626.81,31.02,0000 0000 0000 0000 000000
2016-01-15 10:33:52,0.29,8.21,0.00,15.57,19.99,23.69,15.34,49.72,1042.52,2058.05,1445.94,1710.79,1899.04,599.79,626.67,31.07,0000 0000 0000 0000 000000
2016-01-15 10:38:53,0.26,8.22,0.00,15.56,19.99,23.69,15.39,49.68,1042.55,2058.07,1444.04,1709.46,1897.56,599.92,626.91,31.12,0000 0000 0000 0000 000000
2016-01-15 10:43:55,0.32,8.24,0.00,15.54,19.99,23.71,15.33,49.80,1042.56,2058.08,1442.16,1707.82,1895.82,599.86,627.04,31.17,0000 0000 0000 0000 000000
2016-01-15 10:48:56,0.33,8.26,0.00,15.57,19.99,23.69,15.45,49.75,1042.60,2058.10,1440.08,1706.08,1893.85,600.34,627.37,31.22,0000 0000 0000 0000 000000
2016-01-15 10:53:57,0.29,8.27,0.00,15.59,19.99,23.68,15.42,49.81,1042.54,2058.04,1438.01,1704.46,1892.02,600.19,627.19,31.27,0000 0000 0000 0000 000000
2016-01-15 10:58:58,0.24,8.29,0.00,15.57,19.99,23.72,15.32,49.91,1042.61,2058.04,1436.37,1703.00,1890.47,599.85,626.78,31.32,0000 0000 0000 0000 000000
2016-01-15 11:04:00,0.20,8.30,0.00,15.59,19.99,23.70,15.29,49.80,1042.72,2058.02,1434.86,1701.93,1889.29,599.65,626.74,31.37,0000 0000 0000 0000 000000
2016-01-15 11:09:01,0.17,8.31,0.00,15.61,19.99,23.75,15.34,49.73,1042.88,2058.03,1433.75,1701.07,1888.39,600.05,627.18,31.42,0000 0000 0000 0000 000000
2016-01-15 11:14:03,0.10,8.31,0.00,15.60,19.99,23.75,15.23,49.79,1042.91,2058.02,1433.00,1700.32,1887.95,599.75,626.86,31.47,0000 0000 0000 0000 000000
2016-01-15 11:19:04,0.08,8.32,0.00,15.62,19.99,23.70,15.34,49.70,1042.88,2058.02,1432.53,1700.00,1887.17,599.96,627.01,31.52,0000 0000 0000 0000 000000
2016-01-15 11:24:05,0.05,8.32,0.00,15.60,19.99,23.70,15.39,49.90,1042.82,2058.02,1432.01,1699.73,1886.88,600.18,627.30,31.57,0000 0000 0000 0000 000000
2016-01-15 11:29:06,0.06,8.32,0.00,15.58,19.99,23.70,15.46,49.78,1042.64,2058.01,1431.96,1699.07,1886.22,600.38,627.28,31.62,0000 0000 0000 0000 000000
2016-01-15 11:34:08,0.06,8.33,0.00,15.60,19.99,23.73,15.30,49.82,1042.67,2058.02,1431.30,1699.00,1886.01,599.83,626.85,31.67,0000 0000 0000 0000 000000
2016-01-15 11:39:09,0.01,8.33,0.00,15.63,19.99,23.68,15.35,49.69,1042.66,2058.01,1430.99,1698.97,1885.99,600.09,627.11,31.72,0000 0000 0000 0000 000000
2016-01-15 11:44:10,0.02,8.33,0.00,15.62,19.99,23.72,15.37,49.77,1042.87,2058.01,1430.88,1698.76,1885.94,600.11,627.33,31.77,0000 0000 0000 0000 000000
2016-01-15 11:49:11,0.11,8.33,0.00,15.62,19.98,23.71,15.35,49.72,1042.85,2058.01,1430.55,1698.19,1885.40,600.22,627.25,31.82,0000 0000 0000 0000 000000
2016-01-15 11:54:13,0.03,8.34,0.00,15.60,19.98,23.73,15.34,49.74,1042.67,2058.04,1430.00,1698.00,1885.03,600.02,626.94,31.87,0000 0000 0000 0000 000000
2016-01-15 11:59:14,0.03,8.34,0.00,15.58,19.97,23.72,15.32,49.82,1042.73,2058.06,1429.66,1697.98,1884.99,599.76,626.74,31.92,0000 0000 0000 0000 000000
2016-01-15 12:04:15,0.07,8.34,0.00,15.61,19.98,23.73,15.44,49.76,1042.85,2058.04,1429.04,1697.54,1884.77,600.17,627.23,31.97,0000 0000 0000 0000 000000
2016-01-15 12:09:16,0.05,8.34,0.00,15.65,19.99,23.73,15.35,49.69,1042.72,2058.03,1428.99,1697.05,1884.06,600.28,627.19,32.02,0000 0000 0000 0000 000000
2016-01-15 12:14:18,0.05,8.34,0.00,15.68,19.99,23.75,15.31,49.64,1042.63,2058.02,1428.56,1697.00,1884.00,600.06,626.74,32.07,0000 0000 0000 0000 000000
2016-01-15 12:19:19,0.02,8.35,0.00,15.67,19.99,23.76,15.28,49.90,1042.51,2058.04,1428.02,1696.95,1883.98,599.71,626.42,32.12,0000 0000 0000 0000 000000
2016-01-15 12:24:20,0.08,8.35,0.00,15.70,20.00,23.79,15.21,50.06,1042.58,2058.04,1428.00,1696.32,1883.51,599.73,626.48,32.18,0000 0000 0000 0000 000000
2016-01-15 12:29:22,0.07,8.35,0.00,15.68,20.02,23.80,15.43,49.98,1042.58,2058.02,1427.47,1696.01,1883.04,600.08,626.86,32.23,0000 0000 0000 0000 000000
2016-01-15 12:34:23,0.01,8.36,0.00,15.71,20.03,23.82,15.32,49.85,1042.57,2058.02,1427.04,1696.00,1883.00,599.90,626.53,32.28,0000 0000 0000 0000 000000
2016-01-15 12:39:25,0.01,8.36,0.00,15.73,20.04,23.82,15.40,49.83,1042.54,2058.01,1427.00,1695.90,1882.96,600.14,626.76,32.33,0000 0000 0000 0000 000000
2016-01-15 12:44:26,0.07,8.36,0.00,15.72,20.06,23.85,15.34,49.90,1042.51,2058.01,1426.98,1695.30,1882.36,599.99,626.78,32.38,0000 0000 0000 0000 000000
2016-01-15 12:49:28,0.04,8.36,0.00,15.73,20.07,23.80,15.35,49.91,1042.52,2058.01,1426.67,1695.03,1882.02,599.88,626.53,32.43,0000 0000 0000 0000 000000
2016-01-15 12:54:29,0.03,8.36,0.00,15.74,20.09,23.88,15.35,49.96,1042.54,2058.01,1426.17,1695.00,1882.00,599.76,626.37,32.48,0000 0000 0000 0000 000000